map of KMRJ home
Great Circle Mapper logo
KMRJ - Airport
Location
City:  Mineral Point, Wisconsin, United States
Name:Iowa County Airport
ICAO:KMRJ
FAA:MRJ

Details
Type:Airport (Airfield)
Use:Public/Civil
Latitude:4253'13"N (42.886889)
Longitude:9014'12"W (-90.236666)
Datum:WGS 1984
Elevation:1170 ft (357 m)
Variation:1.83W (WMM2015 magnetic declination)
-0.07 annual change
Runways:2
Longest:5001 × 75 ft (1524 × 23 m), paved

Time
Time Zone:UTC-6 (DST-5)
Local Time:

Weather
METAR:KMRJ 292335Z AUTO 20006KT 10SM CLR 24/20 A2989 RMK AO2

Related Locations
Nearby:
Farthest:MGV: 10940 mi / 17607 km
Margaret River, WA, AU

Find:

   beyond  
but within

Other Information
Maps:
NOTAMs:
Links:
Sources:

  
flag of United States
flag of Wisconsin
  

Sectional Chart

Flight Planning
at skyvector.com

Satellite Image

Google Maps Satellite View

 

Copyright © 2004-2015 Karl L. Swartz. All rights reserved.
The Great Circle Mapper name and logo are trademarks of the Great Circle Mapper.
All other trademarks mentioned herein belong to their respective owners.
Please see credits for attibutions and further copyright information.

  Follow gcmap on Facebook Follow gcmap on Twitter Follow gcmap on Google+

hCard Microformat

Geo Microformat